GW6129 Weather Reports


time (UTC)temp
F
wind
direction
speed
knots
gust
knots
rain 1hr
in
rain 24hr
in
rain mn
in
humidity
%
barometer
mb
20260509213024 87 219 1.7 3.5 0.00 0.00 0.00 63 1008.5
20260509212010 86 33 1.7 3.5 0.00 0.00 0.00 65 1008.7
20260509211527 86 327 0.0 1.7 0.00 0.00 0.00 65 1008.8
20260509211006 86 81 0.0 2.6 0.00 0.00 0.00 62 1008.7
20260509210508 86 12 0.9 3.5 0.00 0.00 0.00 65 1008.9
20260509210026 86 167 0.9 5.2 0.00 0.00 0.00 67 1009.0
20260509205511 86 189 1.7 5.2 0.00 0.00 0.00 64 1009.0
20260509205006 87 211 2.6 5.2 0.00 0.00 0.00 64 1009.1
20260509204521 86 259 0.9 2.6 0.00 0.00 0.00 64 1009.1
20260509204011 85 145 0.0 2.6 0.00 0.00 0.00 63 1009.2
20260509203511 86 160 0.9 3.5 0.00 0.00 0.00 62 1009.2
20260509203018 87 321 1.7 3.5 0.00 0.00 0.00 64 1009.4
20260509202510 86 272 0.9 3.5 0.00 0.00 0.00 65 1009.5
20260509202009 85 257 1.7 2.6 0.00 0.00 0.00 71 1009.6
20260509201009 84 228 0.0 1.7 0.00 0.00 0.00 72 1009.7
20260509200513 84 303 0.0 1.7 0.00 0.00 0.00 74 1009.8
20260509200014 84 303 0.0 1.7 0.00 0.00 0.00 69 1010.0
20260509195509 84 303 0.0 1.7 0.00 0.00 0.00 68 1010.0
20260509195007 84 291 0.0 1.7 0.00 0.00 0.00 68 1009.9
20260509194524 84 314 0.0 1.7 0.00 0.00 0.00 68 1009.9
20260509194010 85 281 0.0 4.3 0.00 0.00 0.00 68 1009.8
20260509193516 85 309 0.9 4.3 0.00 0.00 0.00 67 1009.8
20260509193008 86 23 1.7 3.5 0.00 0.00 0.00 66 1009.7
20260509192507 85 222 0.9 2.6 0.00 0.00 0.00 68 1009.7
20260509192005 85 115 0.0 5.2 0.00 0.00 0.00 64 1009.8
20260509191508 86 249 1.7 5.2 0.00 0.00 0.00 66 1010.0
20260509191007 86 211 2.6 5.2 0.00 0.00 0.00 68 1010.0
20260509190508 85 288 0.9 4.3 0.00 0.00 0.00 65 1010.1
20260509190006 85 277 1.7 4.3 0.00 0.00 0.00 69 1010.1
20260509185503 85 211 0.9 3.5 0.00 0.00 0.00 67 1010.2
20260509185010 85 234 0.9 4.3 0.00 0.00 0.00 68 1010.2
20260509184532 85 352 0.9 4.3 0.00 0.00 0.00 71 1010.2
20260509183507 84 242 0.9 2.6 0.00 0.00 0.00 71 1010.4
20260509183004 84 352 1.7 2.6 0.00 0.00 0.00 70 1010.4
20260509182502 83 275 0.0 5.2 0.00 0.00 0.00 73 1010.6
20260509182006 84 189 0.9 5.2 0.00 0.00 0.00 71 1010.6
20260509181508 84 187 3.5 4.3 0.00 0.00 0.00 74 1010.6
20260509181006 83 221 1.7 4.3 0.00 0.00 0.00 74 1010.7
20260509180504 83 200 2.6 4.3 0.00 0.00 0.00 71 1010.8
20260509180020 83 244 0.9 2.6 0.00 0.00 0.00 73 1010.8
20260509175510 82 225 0.0 3.5 0.00 0.00 0.00 75 1011.0
20260509175004 82 244 0.9 3.5 0.00 0.00 0.00 73 1011.0
20260509174509 83 10 0.0 3.5 0.00 0.00 0.00 73 1011.0
20260509174007 83 257 0.9 4.3 0.00 0.00 0.00 73 1011.1
20260509173509 82 318 1.7 4.3 0.00 0.00 0.00 74 1011.2
20260509172507 82 231 2.6 5.2 0.00 0.00 0.00 75 1011.1
20260509172003 82 352 1.7 7.0 0.00 0.00 0.00 78 1011.1
20260509171506 82 296 1.7 7.0 0.00 0.00 0.00 76 1011.1
20260509171006 81 288 1.7 6.1 0.00 0.00 0.00 77 1011.1
20260509170505 80 347 1.7 6.1 0.00 0.00 0.00 79 1011.2
20260509170014 81 352 2.6 6.1 0.00 0.00 0.00 77 1011.1
20260509165507 81 310 1.7 5.2 0.00 0.00 0.00 81 1011.1
20260509165009 80 340 1.7 4.3 0.00 0.00 0.00 80 1011.2
20260509164518 80 15 1.7 6.1 0.00 0.00 0.00 79 1011.2
20260509164004 80 338 1.7 6.1 0.00 0.00 0.00 80 1011.3
20260509163510 81 16 1.7 4.3 0.00 0.00 0.00 79 1011.4
20260509163028 81 352 2.6 5.2 0.00 0.00 0.00 79 1011.3
20260509161515 80 348 0.9 3.5 0.00 0.00 0.00 83 1011.3
20260509161005 80 276 1.7 3.5 0.00 0.00 0.00 85 1011.5
20260509160503 78 16 0.0 1.7 0.00 0.00 0.00 86 1011.4
20260509160008 77 100 0.0 2.6 0.00 0.00 0.00 86 1011.6
20260509155503 78 25 0.9 2.6 0.00 0.00 0.00 86 1011.7
20260509155007 77 346 0.9 1.7 0.00 0.00 0.00 87 1011.5
20260509154508 76 177 0.0 1.7 0.00 0.00 0.00 88 1011.5
20260509154008 76 128 0.0 2.6 0.00 0.00 0.00 88 1011.6
20260509153506 77 107 0.9 2.6 0.00 0.00 0.00 87 1011.6
20260509153020 76 105 0.9 2.6 0.00 0.00 0.00 88 1011.5
20260509152507 76 106 0.9 4.3 0.00 0.00 0.00 89 1011.5
20260509152016 76 184 1.7 4.3 0.00 0.00 0.00 90 1011.3
20260509151524 76 177 2.6 4.3 0.00 0.00 0.00 90 1011.2
20260509150508 75 319 0.9 4.3 0.00 0.00 0.00 92 1011.3
20260509150008 75 188 2.6 4.3 0.00 0.00 0.00 93 1011.1
20260509145504 75 216 1.7 3.5 0.00 0.00 0.00 93 1011.0
20260509145007 74 176 0.9 3.5 0.00 0.00 0.00 93 1011.1
20260509144512 74 170 0.9 6.1 0.00 0.00 0.00 94 1011.1
20260509144008 74 305 0.9 7.0 0.00 0.00 0.00 95 1011.0
20260509143504 74 212 1.7 11.3 0.00 0.00 0.00 95 1010.6
20260509143018 74 190 4.3 11.3 0.00 0.00 0.00 95 1010.1
20260509142508 74 168 6.1 14.8 0.00 0.00 0.00 96 1009.8
20260509142009 73 175 7.8 14.8 0.00 0.00 0.00 96 1009.6
20260509141531 73 184 6.1 10.4 0.00 0.00 0.00 96 1009.5
20260509141008 73 178 6.1 8.7 0.00 0.00 0.00 96 1009.5
20260509140012 73 178 7.0 12.2 0.00 0.00 0.00 96 1009.6
20260509135507 73 201 4.3 7.8 0.00 0.00 0.00 96 1009.6
20260509135011 73 184 4.3 7.8 0.00 0.00 0.00 97 1009.6
20260509134512 72 195 4.3 7.8 0.00 0.00 0.00 97 1009.7
20260509134009 72 198 3.5 5.2 0.00 0.00 0.00 97 1009.9
20260509133508 72 190 2.6 5.2 0.00 0.00 0.00 96 1010.2
20260509133003 72 216 1.7 6.1 0.00 0.00 0.00 96 1010.2
20260509132508 72 219 1.7 6.1 0.00 0.00 0.00 97 1010.1
20260509132010 72 200 3.5 6.1 0.00 0.00 0.00 96 1010.1
20260509131508 72 197 2.6 6.1 0.00 0.00 0.00 96 1010.1
20260509131009 72 158 2.6 6.1 0.00 0.00 0.00 96 1010.0
20260509130507 72 231 3.5 6.1 0.00 0.00 0.00 96 1010.0
20260509130005 72 202 3.5 9.6 0.00 0.00 0.00 96 1010.0
20260509125507 72 200 6.1 9.6 0.00 0.00 0.00 96 1009.9
20260509125010 72 184 2.6 6.1 0.00 0.00 0.00 96 1009.8
20260509124508 72 159 3.5 6.1 0.00 0.00 0.00 96 1009.9
20260509124004 72 190 2.6 5.2 0.00 0.00 0.00 96 1009.9
20260509123503 72 182 2.6 4.3 0.00 0.00 0.00 96 1009.9
20260509123014 72 188 1.7 3.5 0.00 0.00 0.00 96 1010.1
20260509122508 72 196 1.7 2.6 0.00 0.00 0.00 96 1010.1
20260509122004 72 180 0.9 2.6 0.00 0.00 0.00 96 1010.0
20260509121510 72 166 0.0 1.7 0.00 0.00 0.00 96 1010.1
20260509121010 72 177 0.0 3.5 0.00 0.00 0.00 96 1010.1
20260509120510 72 186 1.7 4.3 0.00 0.00 0.00 96 1009.9
20260509115508 72 198 2.6 3.5 0.00 0.00 0.00 96 1010.2
20260509115006 72 207 0.9 2.6 0.00 0.00 0.00 96 1010.4
20260509114508 72 228 1.7 2.6 0.00 0.00 0.00 96 1010.4
20260509114006 72 211 0.0 2.6 0.00 0.00 0.00 96 1010.6
20260509113504 72 300 0.9 2.6 0.00 0.00 0.00 96 1010.9
20260509113012 72 218 0.9 2.6 0.00 0.00 0.00 96 1010.6
20260509112504 72 177 1.7 2.6 0.00 0.00 0.00 96 1011.0
20260509112006 72 165 0.9 2.6 0.00 0.00 0.00 96 1011.0
20260509111526 72 210 0.9 1.7 0.00 0.00 0.00 96 1011.2
20260509111010 72 288 0.0 1.7 0.00 0.00 0.00 96 1011.4
20260509110506 72 250 0.0 1.7 0.00 0.00 0.00 96 1011.5
20260509110019 72 211 0.9 1.7 0.00 0.00 0.00 96 1011.5
20260509105509 72 29 0.0 1.7 0.00 0.06 0.00 96 1011.5
20260509105006 72 15 0.0 1.7 0.00 0.06 0.00 96 1011.6
20260509104526 72 340 0.0 1.7 0.00 0.06 0.00 96 1011.5
20260509104008 72 331 0.0 1.7 0.00 0.06 0.00 96 1011.5
20260509103506 72 360 0.0 1.7 0.00 0.06 0.00 96 1011.5
20260509103009 72 329 0.0 1.7 0.00 0.06 0.00 96 1011.4
20260509102508 72 300 0.0 1.7 0.00 0.06 0.00 96 1011.4
20260509102007 72 43 0.0 1.7 0.00 0.06 0.00 96 1011.2
20260509101512 72 5 0.0 1.7 0.00 0.06 0.00 96 1011.1
20260509101007 72 91 0.0 1.7 0.00 0.06 0.00 96 1010.7
20260509100506 72 37 0.9 1.7 0.00 0.06 0.00 96 1010.6
20260509100012 72 352 0.0 1.7 0.00 0.06 0.00 96 1010.6
20260509095506 72 235 0.0 2.6 0.00 0.06 0.00 96 1010.4
20260509095009 72 196 1.7 2.6 0.00 0.06 0.00 96 1010.3
20260509094528 72 196 0.9 1.7 0.00 0.06 0.00 96 1010.6
20260509094006 72 35 0.0 1.7 0.00 0.06 0.00 96 1010.9
20260509093510 72 11 0.0 1.7 0.00 0.06 0.00 96 1011.0
20260509093006 72 5 0.0 0.9 0.00 0.06 0.00 96 1010.8
20260509092506 72 11 0.0 0.9 0.00 0.06 0.00 96 1010.5
20260509092005 72 118 0.0 0.9 0.00 0.06 0.00 96 1010.4
20260509091514 72 118 0.0 1.7 0.00 0.06 0.00 96 1010.4
20260509091007 72 118 0.0 1.7 0.00 0.06 0.00 96 1010.3
20260509090507 72 118 0.0 1.7 0.00 0.06 0.00 96 1010.3
20260509090017 72 118 0.0 1.7 0.00 0.06 0.00 96 1010.3
20260509085507 72 118 0.0 1.7 0.00 0.06 0.00 96 1010.4
20260509084513 72 118 0.0 1.7 0.00 0.06 0.00 95 1010.2
20260509084007 72 175 0.0 1.7 0.00 0.06 0.00 95 1010.4
20260509083512 72 175 0.0 1.7 0.00 0.06 0.00 95 1010.6
20260509082010 72 151 0.0 2.6 0.00 0.06 0.00 95 1010.7
20260509081508 72 150 0.9 2.6 0.00 0.06 0.00 95 1010.8
20260509081007 72 166 0.9 3.5 0.00 0.06 0.00 95 1010.8
20260509080506 72 145 0.9 3.5 0.00 0.06 0.00 95 1010.6
20260509080017 72 153 0.9 2.6 0.00 0.06 0.00 95 1010.6
20260509075507 72 153 0.9 2.6 0.00 0.06 0.00 95 1010.8
20260509075007 72 205 0.9 3.5 0.00 0.06 0.00 95 1011.0
20260509074520 72 187 1.7 4.3 0.00 0.06 0.00 95 1010.7
20260509073506 72 188 2.6 4.3 0.00 0.06 0.00 95 1011.0
20260509073021 72 213 2.6 3.5 0.00 0.06 0.00 95 1011.1
20260509072511 72 216 1.7 1.7 0.00 0.06 0.00 95 1010.9
20260509071519 72 168 0.0 1.7 0.00 0.06 0.00 94 1010.9
20260509071010 72 168 0.9 2.6 0.00 0.06 0.00 94 1011.1
20260509070504 72 188 0.9 2.6 0.00 0.06 0.00 94 1011.2
20260509070016 72 186 0.9 4.3 0.00 0.06 0.00 94 1011.2
20260509065511 72 173 1.7 4.3 0.00 0.06 0.00 94 1011.1
20260509065007 72 180 1.7 3.5 0.00 0.06 0.00 94 1010.9
20260509064525 72 147 1.7 6.1 0.00 0.06 0.00 93 1011.0
20260509064009 72 164 1.7 6.1 0.00 0.06 0.00 93 1010.7
20260509063509 72 183 3.5 6.1 0.00 0.06 0.00 93 1010.7
20260509063021 73 169 2.6 7.0 0.00 0.06 0.00 93 1010.7
20260509062511 73 190 4.3 9.6 0.00 0.06 0.00 93 1010.7
20260509062010 73 178 4.3 10.4 0.00 0.06 0.00 93 1010.7
20260509061538 73 178 3.5 10.4 0.00 0.06 0.00 93 1010.8
20260509061009 73 161 4.3 10.4 0.00 0.06 0.00 92 1010.9
20260509060507 73 171 1.7 10.4 0.00 0.06 0.00 92 1010.6
20260509060023 73 172 4.3 10.4 0.00 0.06 0.00 92 1010.4
20260509055507 73 175 3.5 9.6 0.00 0.06 0.00 92 1010.2
20260509055010 73 153 3.5 9.6 0.00 0.06 0.00 92 1010.1
20260509054514 73 115 2.6 7.8 0.00 0.06 0.00 92 1010.2
20260509054009 73 179 3.5 9.6 0.00 0.06 0.00 92 1010.3
20260509053507 73 127 5.2 9.6 0.00 0.06 0.00 92 1010.2
20260509053030 73 141 3.5 7.0 0.00 0.06 0.00 92 1010.1
20260509052509 73 152 4.3 8.7 0.00 0.06 0.00 92 1010.1
20260509052010 73 136 5.2 10.4 0.00 0.06 0.00 92 1010.1
20260509051518 73 158 6.1 10.4 0.00 0.06 0.00 91 1010.1
20260509051008 73 142 5.2 9.6 0.00 0.06 0.00 92 1010.1
20260509050509 73 171 3.5 9.6 0.00 0.06 0.00 92 1010.2
20260509050017 73 170 2.6 6.1 0.00 0.06 0.00 92 1010.2
20260509045512 73 129 3.5 7.0 0.00 0.06 0.06 92 1010.2
20260509045009 73 141 3.5 7.0 0.00 0.06 0.06 91 1010.1
20260509044525 73 183 2.6 8.7 0.00 0.06 0.06 91 1010.0
20260509044007 73 150 4.3 9.6 0.00 0.06 0.06 91 1010.0
20260509043509 73 189 3.5 9.6 0.00 0.06 0.06 91 1010.0
20260509043003 73 142 4.3 9.6 0.00 0.06 0.06 91 1009.9
20260509042505 73 187 4.3 9.6 0.00 0.06 0.06 91 1009.9
20260509042004 73 155 4.3 7.8 0.00 0.06 0.06 91 1009.9
20260509041502 73 184 3.5 6.1 0.00 0.06 0.06 90 1009.9
20260509041003 73 153 3.5 7.0 0.00 0.06 0.06 90 1009.8
20260509040503 73 128 3.5 7.0 0.00 0.06 0.06 90 1009.8
20260509040004 73 158 3.5 6.1 0.00 0.06 0.06 90 1009.8
20260509035502 73 144 3.5 6.1 0.00 0.06 0.06 89 1009.9
20260509035003 73 189 2.6 7.0 0.00 0.06 0.06 89 1009.9
20260509034502 73 150 4.3 7.0 0.00 0.06 0.06 89 1009.8
20260509034002 73 160 2.6 6.1 0.00 0.06 0.06 88 1009.7
20260509033504 74 143 3.5 5.2 0.00 0.06 0.06 88 1009.9
20260509033002 74 159 1.7 5.2 0.00 0.06 0.06 88 1009.8
20260509032503 74 151 2.6 7.0 0.00 0.06 0.06 88 1009.6
20260509032006 74 165 3.5 7.0 0.00 0.06 0.06 88 1009.5
20260509031503 74 163 3.5 7.0 0.00 0.06 0.06 88 1009.4
20260509031003 74 168 2.6 7.0 0.00 0.06 0.06 88 1009.4
20260509030504 74 165 3.5 7.0 0.00 0.06 0.06 87 1009.3
20260509030004 74 159 3.5 7.8 0.00 0.06 0.06 87 1009.3
20260509025503 74 151 3.5 7.8 0.00 0.06 0.06 87 1009.2
20260509025002 74 161 4.3 7.8 0.00 0.06 0.06 87 1009.3
20260509024504 74 160 5.2 7.8 0.00 0.06 0.06 87 1009.2
20260509024006 74 136 4.3 7.8 0.00 0.06 0.06 86 1009.2
20260509022502 75 165 3.5 7.8 0.00 0.06 0.06 86 1009.2
20260509022003 75 126 4.3 7.0 0.00 0.06 0.06 86 1009.2
20260509021504 75 144 4.3 8.7 0.00 0.06 0.06 85 1009.2
20260509021003 75 164 3.5 8.7 0.00 0.06 0.06 85 1009.3
20260509020501 75 160 3.5 7.8 0.00 0.06 0.06 85 1009.1
20260509020003 75 148 3.5 7.8 0.00 0.06 0.06 85 1009.2
20260509015504 75 169 3.5 7.8 0.00 0.06 0.06 85 1009.1
20260509015004 75 152 3.5 7.0 0.00 0.06 0.06 85 1009.0
20260509014506 75 136 2.6 7.0 0.00 0.06 0.06 84 1009.0
20260509014002 75 175 4.3 6.1 0.00 0.06 0.06 84 1009.1
20260509013502 75 150 2.6 6.1 0.00 0.06 0.06 84 1009.1
20260509013004 75 136 3.5 6.1 0.00 0.06 0.06 84 1009.1
20260509012503 76 144 3.5 5.2 0.00 0.06 0.06 84 1009.2
20260509012002 76 158 3.5 5.2 0.00 0.06 0.06 83 1009.2
20260509011503 76 136 3.5 5.2 0.00 0.06 0.06 83 1009.2
20260509011003 76 142 2.6 4.3 0.00 0.06 0.06 83 1009.2
20260509010503 76 132 1.7 3.5 0.00 0.06 0.06 83 1009.2
20260509010003 76 129 0.9 4.3 0.00 0.06 0.06 83 1009.1
20260509005508 76 140 1.7 4.3 0.00 0.06 0.06 82 1009.1
20260509005004 76 155 1.7 4.3 0.00 0.06 0.06 82 1009.2
20260509004503 76 146 0.9 4.3 0.00 0.06 0.06 82 1009.2
20260509004005 77 107 1.7 4.3 0.00 0.06 0.06 82 1009.2
20260509003503 77 167 0.9 4.3 0.00 0.06 0.06 82 1009.1
20260509003006 77 106 0.9 3.5 0.00 0.06 0.06 82 1009.1
20260509002503 77 128 0.0 3.5 0.00 0.06 0.06 81 1009.1
20260509002005 77 113 0.9 3.5 0.00 0.06 0.06 81 1009.2
20260509001506 77 136 1.7 3.5 0.00 0.06 0.06 80 1009.2
20260509000507 77 144 0.9 2.6 0.00 0.06 0.06 80 1009.2
20260509000004 77 143 0.9 2.6 0.00 0.06 0.06 80 1009.2
20260508235504 77 158 0.9 2.6 0.00 0.06 0.06 80 1009.2
20260508235005 78 167 0.9 4.3 0.00 0.06 0.06 79 1009.2
20260508234504 78 131 0.9 4.3 0.00 0.06 0.06 79 1009.2
20260508234004 78 161 1.7 4.3 0.00 0.06 0.06 78 1009.1
20260508233504 79 107 1.7 4.3 0.00 0.06 0.06 78 1009.1
20260508233007 78 155 1.7 4.3 0.00 0.06 0.06 78 1009.1
20260508232502 78 114 1.7 7.0 0.00 0.06 0.06 78 1009.1
20260508232004 78 193 2.6 7.0 0.00 0.06 0.06 78 1009.0
20260508231510 79 195 2.6 5.2 0.00 0.06 0.06 77 1009.0
20260508231004 79 146 1.7 5.2 0.00 0.06 0.06 77 1009.0
20260508230503 79 205 1.7 3.5 0.00 0.06 0.06 76 1009.0
20260508230005 79 142 1.7 5.2 0.00 0.06 0.06 76 1009.0
20260508225503 79 198 1.7 5.2 0.00 0.06 0.06 77 1009.0
20260508225004 79 165 2.6 5.2 0.00 0.06 0.06 77 1009.0
20260508224504 79 175 1.7 4.3 0.00 0.06 0.06 78 1009.0
20260508224002 79 68 0.0 6.1 0.00 0.06 0.06 77 1009.0
20260508223503 79 113 0.9 6.1 0.00 0.06 0.06 76 1009.1
20260508223017 80 138 0.9 6.1 0.00 0.06 0.06 77 1009.1
20260508222504 79 105 0.9 2.6 0.00 0.06 0.06 77 1009.0
20260508222009 79 86 0.0 5.2 0.00 0.06 0.06 76 1009.1
20260508221505 78 68 2.6 5.2 0.00 0.06 0.06 77 1009.1
20260508221003 78 143 0.9 7.0 0.00 0.06 0.06 76 1009.1
20260508220503 79 105 1.7 7.0 0.00 0.06 0.06 75 1009.0
20260508220007 80 151 1.7 4.3 0.00 0.06 0.06 76 1009.0
20260508215503 79 88 1.7 5.2 0.00 0.06 0.06 77 1009.0
20260508215004 79 193 0.9 5.2 0.00 0.06 0.06 76 1008.9
20260508214506 80 222 1.7 4.3 0.00 0.06 0.06 77 1009.0
20260508214003 79 265 0.9 5.2 0.00 0.06 0.06 76 1009.1
20260508213503 78 113 1.7 5.2 0.00 0.06 0.06 76 1009.2